Location: Jerusalem
(31.7670°N, 35.2330°E)
Time: 18:31:02
(UTC+02:00)

ISS - Visible Passes

Search period start: 21 January 2018 00:00
Search period end: 31 January 2018 00:00
Orbit: 402 x 407 km, 51.6° (Epoch: 22 January)

Date Brightness Start Highest point End Pass type
(mag) Time Alt. Az. Time Alt. Az. Time Alt. Az.
22 Jan -2.8 18:35:01 10° SSW 18:37:19 34° SSE 18:37:19 34° SSE visible
23 Jan -2.1 17:43:38 10° S 17:45:56 18° SE 17:47:43 12° E visible
23 Jan -0.9 19:19:22 10° W 19:20:25 17° W 19:20:25 17° W visible
24 Jan -3.5 18:26:39 10° SW 18:29:51 60° NW 18:30:43 41° NNE visible
25 Jan -3.6 17:34:23 10° SSW 17:37:33 55° SE 17:40:45 10° NE visible
25 Jan -0.8 19:12:39 10° WNW 19:13:36 12° NW 19:13:36 12° NW visible
26 Jan -1.8 18:19:06 10° W 18:21:44 22° NW 18:23:44 14° N visible
28 Jan -1.0 18:12:50 10° NW 18:13:44 11° NNW 18:14:38 10° NNW visible
